Regional Weather Roundup
Issued by NWS

Home | Current Version | Previous Version | Text Only | Print | Product List | Glossary Off
Versions: 1 2 3 4 5 6 7 8 9 10 11 12 13 14 15 16 17 18 19 20 21 22 23 24 25 26 27 28 29 30 31 32 33 34 35 36 37 38 39 40 41 42 43 44 45 46 47 48 49 50

000
ASUS45 KTFX 231010
RWRMT
MONTANA REGIONAL WEATHER ROUNDUP
NATIONAL WEATHER SERVICE GREAT FALLS MT
400 AM MDT THU MAR 23 2017

NOTE: "FAIR" INDICATES FEW OR NO CLOUDS BELOW 12000 FEET WITH NO
SIGNIFICANT WEATHER AND/OR OBSTRUCTIONS TO VISIBILITY.

MTZ001>007-043-231100-
WEST OF THE DIVIDE

CITY           SKY/WX    TMP DP  RH WIND       PRES   REMARKS
KALISPELL      CLOUDY    40  39  97 S8        29.89S
MISSOULA       MOCLDY    40  36  86 W3        29.93S
BUTTE          CLOUDY    33  27  78 NW3       29.86S
MULLAN PASS    CLOUDY    27  27 100 VRB7      29.90R WCI  19
ANACONDA         N/A     32  28  86 W5        29.88S
DEER LODGE       N/A     37  30  75 NE5       29.90R
EUREKA           N/A     39  36  87 SE5       29.88S
HAMILTON         N/A     43  30  61 N7        29.91S
RONAN            N/A     41  38  89 CALM      29.97R
$$

MTZ008-052>055-231100-
SOUTHWEST MONTANA

CITY           SKY/WX    TMP DP  RH WIND       PRES   REMARKS
BOZEMAN        CLOUDY    39  33  79 VRB3      29.82F
DILLON         CLOUDY    37  29  72 SW6       29.82F
W YELLOWSTONE  CLOUDY    25  25 100 CALM      29.82F
ENNIS          CLOUDY    36  28  75 NE8       29.86F WCI  29
THREE FORKS      N/A     35  19  52 CALM      29.84R
$$

MTZ009-010-012-014-046-048-049-054-231100-
EAST SLOPES AND CENTRAL MONTANA

CITY           SKY/WX    TMP DP  RH WIND       PRES   REMARKS
CUT BANK       PTCLDY    38  29  70 W22       29.75F WCI  27
GREAT FALLS    CLEAR     31  23  72 W8        29.79F WCI  23
HELENA         PTCLDY    42  31  64 N3        29.84S
AUGUSTA          N/A     36  28  71 SW7       29.80S WCI  31
BOWMANS CRNR     N/A     34  27  77 S12       29.80F WCI  25
CHOTEAU          N/A     36  28  75 SW7       29.81F WCI  30
CONRAD           N/A     36  30  79 SW9       29.82S WCI  29
FAIRFIELD        N/A     36  27  69 SW12      29.79F WCI  28
POWER            N/A     30  26  84 SW9       29.78F WCI  21
RAYNESFORD       N/A     31  24  74 CALM      29.80F
$$

MTZ011-013-016-021-045-047-050-051-231100-
NORTH CENTRAL MONTANA

CITY           SKY/WX    TMP DP  RH WIND       PRES   REMARKS
HAVRE          CLEAR     32  28  85 SW10      29.77S WCI  24
LEWISTOWN      CLOUDY    33  25  72 SW8       29.79F WCI  26
N BAR RANCH    MOCLDY    37  28  70 NW5       29.80F
CHINOOK          N/A     32  28  86 CALM      29.78R
DENTON           N/A     41  27  58 SW3       29.75F
GEYSER           N/A     34  24  67 SW12      29.78F WCI  26
GRASS RANGE    MOCLDY    38  30  72 SW12      29.74F WCI  31
STANFORD         N/A     35  26  67 S3        29.80F
WINIFRED         N/A     37  27  66 W7        29.77F
$$

MTZ017>020-022>027-061-062-231100-
NORTHEAST MONTANA

CITY           SKY/WX    TMP DP  RH WIND       PRES   REMARKS
GLASGOW        CLOUDY    39  33  79 SW3       29.73F
JORDAN           N/A     42  39  89 CALM      29.75F
SIDNEY         CLOUDY    33  31  92 S5        29.75S
WOLF POINT     CLOUDY    35  32  88 NW3       29.74F
MALTA          CLEAR     30  28  93 SW3       29.76S
PLENTYWOOD       N/A     39  36  87 CALM      29.73F
POPLAR           N/A     37  36  93 CALM      29.75S
$$

MTZ028>42-056>058-231100-
SOUTHCENTRAL AND SOUTHEAST MONTANA

CITY           SKY/WX    TMP DP  RH WIND       PRES   REMARKS
BAKER          LGT RAIN  42  37  82 N10       29.75F
BILLINGS       CLOUDY    45  42  89 NW5       29.75F
LIVINGSTON     CLOUDY    40  34  79 CALM      29.80S
MILES CITY     CLOUDY    45  39  79 N9        29.73F
BIG TIMBER     CLOUDY    43  34  70 W16       29.81S
FORSYTH          N/A     45  39  81 SW3       29.73F
HARLOWTON      MOCLDY    37  29  73 NW12      29.80R WCI  29
LAUREL           N/A     44  35  70 CALM      29.76S
ROUNDUP          N/A     42  35  76 W2        29.70F
$$

REGIONAL REPORTS...DAKOTAS

CITY           SKY/WX    TMP DP  RH WIND       PRES   REMARKS
WILLISTON      PTCLDY    31  29  92 CALM      29.75F
MINOT          CLOUDY    34  28  79 S3        29.75F
DICKINSON      CLOUDY    34  30  85 W6        29.74S WCI  29
BEACH            N/A    N/A N/A N/A MISG        N/A
TIOGA            N/A     30  30 100 CALM      29.75F
WATFORD CITY   MOCLDY    30  30 100 CALM      29.75F
BISMARCK       CLOUDY    32  28  85 NE9       29.78F WCI  24
GRAND FORKS    CLOUDY    33  21  61 S14       29.90F WCI  23
FARGO          CLEAR     36  25  64 S23G32    29.92F WCI  24
BUFFALO SD       N/A     41  37  86 NE15      29.63F
RAPID CITY     PTCLDY    47  37  68 CALM      29.67F
$$

REGIONAL REPORTS...WYOMING/IDAHO/WASHINGTON

CITY           SKY/WX    TMP DP  RH WIND       PRES   REMARKS
GILLETTE       LGT RAIN  50  42  74 W6        29.72R
SHERIDAN       CLOUDY    46  41  82 W7        29.74F
BUFFALO WY     LGT RAIN  45  38  76 N12       29.75S
CODY           CLOUDY    44  36  73 NW6       29.75F
YELLOWSTONE LA   N/A     29  28  96 CALM      29.82F
IDAHO FALLS    CLOUDY    40  37  89 S7        29.79F
SALMON         PTCLDY    39  27  60 CALM      29.87R
BOISE          CLEAR     39  34  82 W13       29.92S WCI  31
SPOKANE        PTCLDY    37  33  85 S14       29.96R WCI  28
$$

REGIONAL REPORTS...ALBERTA

CITY           SKY/WX    TMP DP  RH WIND       PRES   REMARKS
EDMONTON       CLOUDY    25  21  86 E8        29.72S WCI  16
CALGARY        PTCLDY    36  21  55 SW9       29.67S WCI  29
LETHBRIDGE     PTCLDY    36  28  75 SW13      29.74R WCI  27
MEDICINE HAT   MOCLDY    34  28  80 SW9       29.72S WCI  26
WATERTON GATE    N/A     37  28  70 SW20G29     N/A  WCI  27
CARDSTON         N/A     39  25  56 W7          N/A
MILK RIVER       N/A     39  30  70 W18         N/A  WCI  30
$$

REGIONAL REPORTS...SASKATCHEWAN

CITY           SKY/WX    TMP DP  RH WIND       PRES   REMARKS
SWIFT CURRENT  CLEAR     30  28  93 NW5       29.71S
REGINA         CLEAR     30  28  93 NW10      29.73R WCI  21
SASKATOON      MOCLDY    27  25  93 W10       29.75R WCI  17
CYPRESS HILLS    N/A     39  21  48 NW6         N/A
VAL MARIE        N/A     27  25  93 SW2         N/A
ROCKGLEN         N/A     36  30  80 SW8         N/A  WCI  29
ASSINIBOIA       N/A     12  10  92 S2          N/A
$$



USA.gov is the U.S. government's official web portal to all federal, state and local government web resources and services.